Showing default

GCOM W1, 38337

Orbit data source: Space-Track

GCOM W1, 38337 is a payload satellite owned by JAXA (JP) in SSO that was launched on Thu, 17 May 2012 UTC via an H-IIA 202 launch vehicle from the Tanegashima Space Center (TNSTA). Payload-class satellites include a variety of spacecraft equipped with specific instruments for various scientific and technological missions. These include communications satellites like Starlink; space stations such as the ISS; scientific satellites like the Hubble; Earth observation satellites from companies like Planet Labs, Umbra, and HawkEye 360; GPS; miniature CubeSats for education and research; and military/defense satellites.

Loading next visibility...
Identifier
38337, 2012-025A
Orbit
SSO
Country
Flag of JPJP / JPN
Related business
Manufacturer
NECTF?
Mission
Operational Civil Science
Bus & Motor
GCOM, AOCS
Mass
1,991 kg wet, 1,841 kg dry
Launch date (UTC)
2012-05-17 (14 years ago)
Launch vehicle
H-IIA 202
Launch site
Tanegashima Space Center (TNSTA)
Object type
Payload
Rocket body
Debris
Shape & HBR
Box + 2 Pan + 1 Dish, 8.8 m
Radar Cross Section
35.969 m², Large (>1 m²)

Expand to show TLE details & history
Last TLE update: 12 hours ago

TLE from 12 hours ago
0 GCOM W1
1 38337U 12025A   26263.42409126  .00000269  00000-0  69692-4 0  9994
2 38337  98.2076 202.5546 0001535  84.7968  26.9490 14.57137433762900
Epoch: 2026-09-20T10:10Z
TLE epoch observation values (Epoch: 2026-09-20T10:10:41.484Z)
Latitude
66.90579°
Longitude
-109.77664°
Altitude
713.019 km
Speed
7.506 km/s
True Right ascension
02h 48m 51s
True Declination
66° 46' 50"
Sunlit
Object was in daylight at epoch
Visualization orbit readout
Latitude
Unknown
Longitude
Unknown
Altitude
Unknown
Speed
Unknown
Apparent Right ascension
Unknown
Apparent Declination
Unknown
Sunlit
N/A
Visualization observer readout
Local Sidereal Time
14:40:13
Azimuth
Unknown
Elevation
Unknown
Doppler factor
Unknown
Orbital elements
Apogee altitude
700.604 km
Perigee altitude
698.431 km
Semi-major axis
7,077.654 km
Eccentricity
0.00015
Inclination
98.2076°
RAAN
202.5546°
Arg. of periapsis
84.7968°
True anomaly
26.95697°
Mean anomaly
26.949°
Eccentric anomaly
26.95299°
Mean motion
3.6451 °/min
Orbital period
98.76 mins
BSTAR
0.000069692
Loading maneuver chart data...
Computing Atmospheric mass density...
Loading historical data...
Loading historical data...
Loading historical data...
Loading historical data...
Loading historical data...
Loading historical data...
Loading historical data...

Documentation

Showing up to 5 results
|